| time (UTC) | temp F | wind direction | speed MPH | gust MPH | rain 1hr in | rain 24hr in | rain mn in | humidity % | barometer mb |
| 20260508171750 | 57 | 120 | 1.0 | 1.0 | 0.00 | 0.04 | 0.04 | 54 | 1011.9 |
| 20260508171246 | 56 | 107 | 0.0 | 0.0 | 0.00 | 0.04 | 0.04 | 53 | 1012.0 |
| 20260508170743 | 57 | 40 | 3.0 | 7.0 | 0.00 | 0.04 | 0.04 | 54 | 1012.0 |
| 20260508170242 | 57 | 116 | 0.0 | 1.0 | 0.00 | 0.04 | 0.04 | 53 | 1011.8 |
| 20260508165738 | 57 | 116 | 0.0 | 0.0 | 0.00 | 0.04 | 0.04 | 51 | 1011.6 |
| 20260508165235 | 57 | 127 | 1.0 | 1.0 | 0.00 | 0.04 | 0.04 | 51 | 1011.6 |
| 20260508164731 | 58 | 119 | 0.0 | 0.0 | 0.00 | 0.04 | 0.04 | 51 | 1011.8 |
| 20260508164228 | 58 | 153 | 2.0 | 2.0 | 0.00 | 0.04 | 0.04 | 51 | 1011.6 |
| 20260508163726 | 58 | 128 | 0.0 | 1.0 | 0.00 | 0.04 | 0.04 | 50 | 1011.7 |
| 20260508163223 | 58 | 124 | 0.0 | 1.0 | 0.00 | 0.04 | 0.04 | 49 | 1011.7 |
| 20260508162719 | 59 | 122 | 0.0 | 0.0 | 0.00 | 0.04 | 0.04 | 51 | 1011.9 |
| 20260508162216 | 59 | 167 | 1.0 | 2.0 | 0.00 | 0.04 | 0.04 | 51 | 1011.8 |
| 20260508161713 | 60 | 111 | 0.0 | 0.0 | 0.00 | 0.04 | 0.04 | 47 | 1012.0 |
| 20260508161211 | 59 | 119 | 0.0 | 1.0 | 0.00 | 0.04 | 0.04 | 47 | 1012.0 |
| 20260508160708 | 58 | 109 | 3.0 | 6.0 | 0.00 | 0.04 | 0.04 | 48 | 1012.1 |
| 20260508160206 | 58 | 132 | 0.0 | 1.0 | 0.00 | 0.04 | 0.04 | 50 | 1012.1 |
| 20260508155703 | 58 | 179 | 2.0 | 2.0 | 0.00 | 0.04 | 0.04 | 50 | 1012.2 |
| 20260508155200 | 56 | 123 | 1.0 | 1.0 | 0.00 | 0.04 | 0.04 | 50 | 1012.1 |
| 20260508154657 | 56 | 180 | 3.0 | 3.0 | 0.00 | 0.04 | 0.04 | 51 | 1012.3 |
| 20260508154154 | 57 | 152 | 2.0 | 2.0 | 0.00 | 0.04 | 0.04 | 49 | 1012.4 |
| 20260508153650 | 58 | 193 | 3.0 | 3.0 | 0.00 | 0.04 | 0.04 | 48 | 1012.4 |
| 20260508153147 | 59 | 156 | 2.0 | 2.0 | 0.00 | 0.04 | 0.04 | 47 | 1012.4 |
| 20260508152644 | 59 | 181 | 3.0 | 5.0 | 0.00 | 0.04 | 0.04 | 48 | 1012.3 |
| 20260508152139 | 58 | 136 | 1.0 | 1.0 | 0.00 | 0.04 | 0.04 | 49 | 1012.4 |
| 20260508151636 | 58 | 54 | 3.0 | 3.0 | 0.00 | 0.04 | 0.04 | 48 | 1012.2 |
| 20260508151133 | 57 | 107 | 0.0 | 0.0 | 0.00 | 0.04 | 0.04 | 51 | 1012.3 |
| 20260508150630 | 57 | 124 | 0.0 | 1.0 | 0.00 | 0.04 | 0.04 | 49 | 1012.3 |
| 20260508150127 | 57 | 94 | 2.0 | 3.0 | 0.00 | 0.04 | 0.04 | 54 | 1012.3 |
| 20260508145622 | 56 | 33 | 4.0 | 5.0 | 0.00 | 0.04 | 0.04 | 54 | 1012.5 |
| 20260508145119 | 57 | 110 | 0.0 | 0.0 | 0.00 | 0.04 | 0.04 | 53 | 1012.6 |
| 20260508144617 | 56 | 306 | 1.0 | 1.0 | 0.00 | 0.04 | 0.04 | 53 | 1012.4 |
| 20260508144114 | 56 | 126 | 1.0 | 2.0 | 0.00 | 0.04 | 0.04 | 57 | 1012.7 |
| 20260508143612 | 55 | 108 | 1.0 | 1.0 | 0.00 | 0.04 | 0.04 | 60 | 1012.7 |
| 20260508143108 | 53 | 146 | 0.0 | 1.0 | 0.00 | 0.04 | 0.04 | 62 | 1012.9 |
| 20260508142605 | 54 | 128 | 0.0 | 0.0 | 0.00 | 0.04 | 0.04 | 61 | 1013.0 |
| 20260508142102 | 54 | 27 | 2.0 | 3.0 | 0.00 | 0.04 | 0.04 | 61 | 1012.9 |
| 20260508141558 | 54 | 43 | 3.0 | 5.0 | 0.00 | 0.04 | 0.04 | 63 | 1012.9 |
| 20260508141056 | 54 | 69 | 1.0 | 2.0 | 0.00 | 0.04 | 0.04 | 63 | 1012.9 |
| 20260508140553 | 53 | 113 | 1.0 | 1.0 | 0.00 | 0.04 | 0.04 | 64 | 1012.8 |
| 20260508140049 | 53 | 102 | 1.0 | 1.0 | 0.00 | 0.04 | 0.04 | 65 | 1012.7 |
| 20260508135545 | 52 | 125 | 0.0 | 0.0 | 0.00 | 0.04 | 0.04 | 66 | 1012.6 |
| 20260508135041 | 52 | 123 | 1.0 | 1.0 | 0.00 | 0.04 | 0.04 | 67 | 1012.5 |
| 20260508134538 | 52 | 110 | 0.0 | 0.0 | 0.00 | 0.04 | 0.04 | 68 | 1012.8 |
| 20260508134035 | 52 | 129 | 0.0 | 1.0 | 0.00 | 0.04 | 0.04 | 69 | 1012.9 |
| 20260508133532 | 51 | 117 | 0.0 | 0.0 | 0.00 | 0.04 | 0.04 | 71 | 1012.7 |
| 20260508133029 | 51 | 163 | 2.0 | 3.0 | 0.00 | 0.04 | 0.04 | 71 | 1013.1 |
| 20260508132527 | 50 | 123 | 1.0 | 1.0 | 0.00 | 0.04 | 0.04 | 72 | 1012.8 |
| 20260508132024 | 50 | 111 | 0.0 | 1.0 | 0.00 | 0.04 | 0.04 | 73 | 1012.9 |
| 20260508131519 | 50 | 95 | 4.0 | 5.0 | 0.00 | 0.04 | 0.04 | 74 | 1012.9 |
| 20260508131016 | 50 | 106 | 1.0 | 1.0 | 0.00 | 0.04 | 0.04 | 74 | 1013.0 |
| 20260508130513 | 50 | 74 | 1.0 | 2.0 | 0.00 | 0.04 | 0.04 | 74 | 1013.2 |
| 20260508130009 | 50 | 119 | 0.0 | 0.0 | 0.00 | 0.04 | 0.04 | 75 | 1013.2 |
| 20260508125505 | 50 | 73 | 1.0 | 1.0 | 0.00 | 0.04 | 0.04 | 77 | 1012.9 |
| 20260508125003 | 49 | 107 | 0.0 | 0.0 | 0.00 | 0.04 | 0.04 | 77 | 1012.9 |
| 20260508124500 | 49 | 102 | 1.0 | 1.0 | 0.00 | 0.04 | 0.04 | 77 | 1012.9 |
| 20260508123957 | 48 | 96 | 2.0 | 3.0 | 0.00 | 0.04 | 0.04 | 80 | 1012.8 |
| 20260508123456 | 48 | 90 | 0.0 | 0.0 | 0.00 | 0.04 | 0.04 | 80 | 1013.0 |
| 20260508122952 | 48 | 142 | 1.0 | 1.0 | 0.00 | 0.04 | 0.04 | 81 | 1013.1 |
| 20260508122449 | 48 | 116 | 0.0 | 0.0 | 0.00 | 0.04 | 0.04 | 83 | 1013.2 |
| 20260508121946 | 47 | 123 | 0.0 | 0.0 | 0.00 | 0.04 | 0.04 | 85 | 1013.2 |
| 20260508121444 | 47 | 113 | 0.0 | 0.0 | 0.00 | 0.04 | 0.04 | 87 | 1013.1 |
| 20260508120942 | 46 | 108 | 0.0 | 0.0 | 0.00 | 0.04 | 0.04 | 90 | 1013.1 |
| 20260508120439 | 46 | 111 | 0.0 | 0.0 | 0.00 | 0.04 | 0.04 | 91 | 1013.0 |
| 20260508115937 | 45 | 122 | 0.0 | 0.0 | 0.00 | 0.04 | 0.04 | 91 | 1013.1 |
| 20260508115435 | 45 | 114 | 0.0 | 0.0 | 0.00 | 0.04 | 0.04 | 92 | 1013.0 |
| 20260508114931 | 45 | 108 | 0.0 | 0.0 | 0.00 | 0.04 | 0.04 | 95 | 1013.0 |
| 20260508114428 | 44 | 123 | 0.0 | 0.0 | 0.00 | 0.04 | 0.04 | 96 | 1013.2 |
| 20260508113924 | 44 | 107 | 0.0 | 1.0 | 0.00 | 0.04 | 0.04 | 98 | 1013.0 |
| 20260508113423 | 44 | 116 | 0.0 | 0.0 | 0.00 | 0.04 | 0.04 | 99 | 1012.9 |
| 20260508112919 | 44 | 108 | 0.0 | 0.0 | 0.00 | 0.04 | 0.04 | 99 | 1012.9 |
| 20260508112416 | 44 | 120 | 0.0 | 0.0 | 0.00 | 0.04 | 0.04 | 99 | 1012.6 |
| 20260508111913 | 44 | 119 | 0.0 | 0.0 | 0.00 | 0.04 | 0.04 | 99 | 1012.7 |
| 20260508111410 | 43 | 123 | 0.0 | 0.0 | 0.00 | 0.04 | 0.04 | 99 | 1012.5 |
| 20260508110907 | 43 | 118 | 0.0 | 0.0 | 0.00 | 0.04 | 0.04 | 99 | 1012.5 |
| 20260508110404 | 43 | 120 | 0.0 | 0.0 | 0.00 | 0.04 | 0.04 | 99 | 1012.8 |
| 20260508105858 | 43 | 117 | 0.0 | 0.0 | 0.00 | 0.04 | 0.04 | 99 | 1012.7 |
| 20260508105355 | 43 | 117 | 0.0 | 0.0 | 0.00 | 0.04 | 0.04 | 99 | 1012.7 |
| 20260508104852 | 43 | 117 | 0.0 | 0.0 | 0.00 | 0.04 | 0.04 | 99 | 1012.5 |
| 20260508104349 | 43 | 116 | 0.0 | 0.0 | 0.00 | 0.04 | 0.04 | 99 | 1012.7 |
| 20260508103847 | 42 | 115 | 0.0 | 0.0 | 0.00 | 0.04 | 0.04 | 99 | 1012.6 |
| 20260508103343 | 42 | 118 | 0.0 | 0.0 | 0.00 | 0.04 | 0.04 | 99 | 1012.5 |
| 20260508102841 | 42 | 109 | 0.0 | 0.0 | 0.00 | 0.04 | 0.04 | 99 | 1012.5 |
| 20260508102339 | 42 | 117 | 0.0 | 0.0 | 0.00 | 0.04 | 0.04 | 99 | 1012.5 |
| 20260508101836 | 42 | 115 | 0.0 | 0.0 | 0.00 | 0.04 | 0.04 | 99 | 1012.4 |
| 20260508101333 | 42 | 122 | 0.0 | 0.0 | 0.00 | 0.04 | 0.04 | 99 | 1012.4 |
| 20260508100830 | 42 | 118 | 0.0 | 0.0 | 0.00 | 0.04 | 0.04 | 99 | 1012.3 |
| 20260508100329 | 42 | 118 | 0.0 | 0.0 | 0.00 | 0.04 | 0.04 | 99 | 1012.1 |
| 20260508095824 | 42 | 122 | 0.0 | 0.0 | 0.00 | 0.04 | 0.04 | 99 | 1012.1 |
| 20260508095322 | 42 | 123 | 0.0 | 0.0 | 0.00 | 0.04 | 0.04 | 99 | 1012.2 |
| 20260508094819 | 42 | 121 | 0.0 | 0.0 | 0.00 | 0.04 | 0.04 | 99 | 1012.0 |
| 20260508094316 | 42 | 120 | 0.0 | 0.0 | 0.00 | 0.04 | 0.04 | 99 | 1012.0 |
| 20260508093813 | 43 | 120 | 0.0 | 0.0 | 0.00 | 0.04 | 0.04 | 99 | 1012.2 |
| 20260508093310 | 43 | 120 | 0.0 | 0.0 | 0.00 | 0.04 | 0.04 | 99 | 1012.2 |
| 20260508092808 | 43 | 121 | 0.0 | 0.0 | 0.00 | 0.04 | 0.04 | 99 | 1012.1 |
| 20260508092312 | 44 | 120 | 0.0 | 0.0 | 0.00 | 0.04 | 0.04 | 99 | 1011.9 |
| 20260508091803 | 44 | 121 | 0.0 | 0.0 | 0.00 | 0.04 | 0.04 | 99 | 1011.9 |
| 20260508091259 | 44 | 123 | 0.0 | 0.0 | 0.00 | 0.04 | 0.04 | 99 | 1011.7 |
| 20260508090757 | 44 | 124 | 0.0 | 0.0 | 0.00 | 0.04 | 0.04 | 99 | 1011.9 |
| 20260508090255 | 44 | 121 | 0.0 | 0.0 | 0.00 | 0.04 | 0.04 | 99 | 1011.8 |
| 20260508085751 | 44 | 121 | 0.0 | 0.0 | 0.00 | 0.04 | 0.04 | 98 | 1011.7 |
| 20260508085248 | 44 | 125 | 0.0 | 0.0 | 0.00 | 0.04 | 0.04 | 98 | 1011.5 |
| 20260508084744 | 44 | 124 | 0.0 | 0.0 | 0.00 | 0.04 | 0.04 | 98 | 1011.6 |
| 20260508084242 | 44 | 120 | 0.0 | 0.0 | 0.00 | 0.04 | 0.04 | 98 | 1011.6 |
| 20260508083739 | 44 | 119 | 0.0 | 0.0 | 0.00 | 0.04 | 0.04 | 98 | 1011.7 |
| 20260508083236 | 44 | 117 | 0.0 | 0.0 | 0.00 | 0.04 | 0.04 | 98 | 1011.5 |
| 20260508082731 | 44 | 114 | 0.0 | 0.0 | 0.00 | 0.04 | 0.04 | 98 | 1011.7 |
| 20260508082229 | 44 | 118 | 0.0 | 0.0 | 0.00 | 0.04 | 0.04 | 98 | 1011.6 |
| 20260508081726 | 44 | 115 | 0.0 | 0.0 | 0.00 | 0.04 | 0.04 | 98 | 1011.8 |
| 20260508081222 | 44 | 115 | 0.0 | 0.0 | 0.00 | 0.04 | 0.04 | 98 | 1011.9 |
| 20260508080720 | 44 | 111 | 0.0 | 0.0 | 0.00 | 0.04 | 0.04 | 98 | 1011.9 |
| 20260508080218 | 44 | 119 | 0.0 | 0.0 | 0.00 | 0.04 | 0.04 | 98 | 1011.9 |
| 20260508075714 | 44 | 123 | 0.0 | 0.0 | 0.00 | 0.04 | 0.04 | 97 | 1011.7 |
| 20260508075211 | 44 | 123 | 0.0 | 0.0 | 0.00 | 0.04 | 0.04 | 97 | 1011.7 |
| 20260508074709 | 44 | 121 | 0.0 | 0.0 | 0.00 | 0.04 | 0.04 | 97 | 1011.6 |
| 20260508074206 | 44 | 119 | 0.0 | 0.0 | 0.00 | 0.04 | 0.04 | 96 | 1011.6 |
| 20260508073702 | 44 | 120 | 0.0 | 0.0 | 0.00 | 0.04 | 0.04 | 96 | 1011.7 |
| 20260508073201 | 44 | 121 | 0.0 | 0.0 | 0.00 | 0.04 | 0.04 | 96 | 1011.7 |
| 20260508072656 | 44 | 121 | 0.0 | 0.0 | 0.00 | 0.04 | 0.04 | 95 | 1011.9 |
| 20260508072153 | 44 | 122 | 0.0 | 0.0 | 0.00 | 0.04 | 0.04 | 95 | 1012.1 |
| 20260508071651 | 44 | 121 | 0.0 | 0.0 | 0.07 | 0.04 | 0.04 | 94 | 1012.1 |
| 20260508071149 | 44 | 119 | 0.0 | 0.0 | 0.00 | 0.03 | 0.03 | 94 | 1012.2 |
| 20260508070646 | 45 | 121 | 0.0 | 0.0 | 0.00 | 0.03 | 0.03 | 93 | 1012.1 |
| 20260508070145 | 44 | 122 | 0.0 | 0.0 | 0.00 | 0.03 | 0.03 | 92 | 1012.2 |
| 20260508065641 | 45 | 123 | 0.0 | 0.0 | 0.07 | 0.03 | 0.03 | 92 | 1012.2 |
| 20260508065139 | 45 | 122 | 0.0 | 0.0 | 0.07 | 0.03 | 0.03 | 91 | 1012.3 |
| 20260508064637 | 45 | 100 | 0.0 | 1.0 | 0.05 | 0.02 | 0.02 | 90 | 1012.5 |
| 20260508064135 | 45 | 103 | 0.0 | 0.0 | 0.05 | 0.02 | 0.02 | 89 | 1012.4 |
| 20260508063632 | 45 | 116 | 1.0 | 1.0 | 0.00 | 0.01 | 0.01 | 88 | 1012.1 |
| 20260508063130 | 45 | 142 | 0.0 | 0.0 | 0.00 | 0.01 | 0.01 | 87 | 1012.4 |
| 20260508062627 | 45 | 112 | 0.0 | 0.0 | 0.00 | 0.01 | 0.01 | 85 | 1012.4 |
| 20260508062123 | 46 | 132 | 1.0 | 2.0 | 0.00 | 0.01 | 0.01 | 83 | 1012.3 |
| 20260508061621 | 46 | 108 | 0.0 | 0.0 | 0.07 | 0.01 | 0.01 | 81 | 1012.4 |
| 20260508061118 | 47 | 113 | 0.0 | 0.0 | 0.00 | 0.00 | 0.00 | 76 | 1012.2 |
| 20260508060615 | 49 | 81 | 2.0 | 2.0 | 0.00 | 0.00 | 0.00 | 66 | 1012.2 |
| 20260508060112 | 49 | 123 | 0.0 | 0.0 | 0.00 | 0.00 | 0.00 | 64 | 1011.6 |
| 20260508055608 | 49 | 118 | 0.0 | 0.0 | 0.00 | 0.00 | 0.00 | 62 | 1011.7 |
| 20260508055105 | 49 | 88 | 1.0 | 1.0 | 0.00 | 0.00 | 0.00 | 61 | 1011.3 |
| 20260508054601 | 49 | 69 | 0.0 | 1.0 | 0.00 | 0.00 | 0.00 | 60 | 1010.5 |
| 20260508054059 | 49 | 118 | 0.0 | 0.0 | 0.00 | 0.00 | 0.00 | 59 | 1010.0 |
| 20260508053555 | 49 | 109 | 0.0 | 0.0 | 0.00 | 0.00 | 0.00 | 60 | 1009.9 |
| 20260508053053 | 49 | 114 | 0.0 | 0.0 | 0.00 | 0.00 | 0.00 | 61 | 1009.8 |
| 20260508052551 | 49 | 117 | 0.0 | 0.0 | 0.00 | 0.00 | 0.00 | 61 | 1009.8 |
| 20260508052047 | 49 | 103 | 0.0 | 0.0 | 0.00 | 0.00 | 0.00 | 60 | 1009.7 |
| 20260508051543 | 49 | 106 | 0.0 | 0.0 | 0.00 | 0.00 | 0.00 | 59 | 1009.6 |
| 20260508051039 | 50 | 96 | 0.0 | 1.0 | 0.00 | 0.00 | 0.00 | 60 | 1009.8 |
| 20260508050535 | 50 | 104 | 0.0 | 0.0 | 0.00 | 0.00 | 0.00 | 59 | 1010.0 |
| 20260508050033 | 50 | 119 | 0.0 | 0.0 | 0.00 | 0.00 | 0.00 | 58 | 1009.9 |
| 20260508045529 | 50 | 131 | 1.0 | 1.0 | 0.00 | 0.00 | 0.00 | 58 | 1009.8 |
| 20260508045027 | 50 | 102 | 0.0 | 0.0 | 0.00 | 0.00 | 0.00 | 59 | 1009.9 |
| 20260508044524 | 50 | 100 | 0.0 | 0.0 | 0.00 | 0.00 | 0.00 | 59 | 1009.7 |
| 20260508044019 | 49 | 75 | 0.0 | 0.0 | 0.00 | 0.00 | 0.00 | 61 | 1009.6 |
| 20260508043516 | 49 | 108 | 0.0 | 0.0 | 0.00 | 0.00 | 0.00 | 62 | 1009.8 |
| 20260508043013 | 49 | 122 | 0.0 | 0.0 | 0.00 | 0.00 | 0.00 | 63 | 1009.6 |
| 20260508042510 | 49 | 124 | 0.0 | 0.0 | 0.00 | 0.00 | 0.00 | 62 | 1009.5 |
| 20260508042008 | 48 | 118 | 0.0 | 0.0 | 0.00 | 0.00 | 0.00 | 63 | 1009.4 |
| 20260508041504 | 48 | 116 | 0.0 | 0.0 | 0.00 | 0.00 | 0.00 | 65 | 1009.7 |
| 20260508041001 | 48 | 121 | 0.0 | 0.0 | 0.00 | 0.00 | 0.00 | 69 | 1009.8 |
| 20260508040458 | 47 | 120 | 0.0 | 0.0 | 0.00 | 0.00 | 0.00 | 68 | 1009.8 |
| 20260508035956 | 47 | 118 | 0.0 | 0.0 | 0.00 | 0.14 | 0.14 | 71 | 1009.8 |
| 20260508035452 | 46 | 122 | 0.0 | 0.0 | 0.00 | 0.14 | 0.14 | 73 | 1009.6 |
| 20260508034949 | 46 | 118 | 0.0 | 0.0 | 0.00 | 0.14 | 0.14 | 75 | 1009.5 |
| 20260508034446 | 46 | 117 | 0.0 | 0.0 | 0.00 | 0.14 | 0.14 | 77 | 1009.8 |
| 20260508033943 | 46 | 116 | 0.0 | 0.0 | 0.00 | 0.14 | 0.14 | 79 | 1009.7 |
| 20260508033441 | 46 | 121 | 0.0 | 0.0 | 0.00 | 0.14 | 0.14 | 77 | 1009.7 |
| 20260508032938 | 47 | 121 | 0.0 | 0.0 | 0.00 | 0.14 | 0.14 | 76 | 1009.7 |
| 20260508032436 | 47 | 118 | 0.0 | 0.0 | 0.00 | 0.14 | 0.14 | 75 | 1010.0 |
| 20260508031932 | 47 | 118 | 0.0 | 0.0 | 0.00 | 0.14 | 0.14 | 73 | 1009.8 |
| 20260508031430 | 47 | 118 | 0.0 | 0.0 | 0.00 | 0.14 | 0.14 | 75 | 1009.6 |
| 20260508030925 | 46 | 117 | 0.0 | 0.0 | 0.00 | 0.14 | 0.14 | 76 | 1009.7 |
| 20260508030423 | 46 | 110 | 0.0 | 0.0 | 0.00 | 0.14 | 0.14 | 77 | 1009.8 |
| 20260508025919 | 46 | 118 | 0.0 | 0.0 | 0.00 | 0.14 | 0.14 | 78 | 1009.8 |
| 20260508025416 | 46 | 118 | 0.0 | 0.0 | 0.00 | 0.14 | 0.14 | 79 | 1009.8 |
| 20260508024913 | 45 | 121 | 0.0 | 0.0 | 0.00 | 0.14 | 0.14 | 79 | 1009.6 |
| 20260508024410 | 45 | 121 | 0.0 | 0.0 | 0.00 | 0.14 | 0.14 | 79 | 1009.7 |
| 20260508023906 | 45 | 118 | 0.0 | 0.0 | 0.00 | 0.14 | 0.14 | 79 | 1009.8 |
| 20260508023403 | 45 | 118 | 0.0 | 0.0 | 0.00 | 0.14 | 0.14 | 79 | 1009.9 |
| 20260508022900 | 45 | 120 | 0.0 | 0.0 | 0.00 | 0.14 | 0.14 | 79 | 1009.8 |
| 20260508022355 | 45 | 122 | 0.0 | 0.0 | 0.00 | 0.14 | 0.14 | 79 | 1009.7 |
| 20260508021853 | 46 | 121 | 0.0 | 0.0 | 0.00 | 0.14 | 0.14 | 78 | 1009.8 |
| 20260508021349 | 46 | 118 | 0.0 | 0.0 | 0.00 | 0.14 | 0.14 | 77 | 1009.6 |
| 20260508020845 | 46 | 118 | 0.0 | 0.0 | 0.00 | 0.14 | 0.14 | 76 | 1009.7 |
| 20260508020343 | 46 | 117 | 0.0 | 0.0 | 0.00 | 0.14 | 0.14 | 75 | 1009.5 |
| 20260508015840 | 46 | 118 | 0.0 | 0.0 | 0.00 | 0.14 | 0.14 | 74 | 1009.7 |
| 20260508015337 | 47 | 117 | 0.0 | 0.0 | 0.00 | 0.14 | 0.14 | 73 | 1009.6 |
| 20260508014834 | 47 | 118 | 0.0 | 0.0 | 0.00 | 0.14 | 0.14 | 72 | 1009.7 |
| 20260508014331 | 47 | 116 | 0.0 | 0.0 | 0.00 | 0.14 | 0.14 | 71 | 1009.6 |
| 20260508013832 | 48 | 117 | 0.0 | 0.0 | 0.00 | 0.14 | 0.14 | 71 | 1009.5 |
| 20260508013328 | 48 | 118 | 0.0 | 0.0 | 0.00 | 0.14 | 0.14 | 70 | 1009.5 |
| 20260508012826 | 48 | 118 | 0.0 | 0.0 | 0.00 | 0.14 | 0.14 | 69 | 1009.5 |
| 20260508012323 | 49 | 118 | 0.0 | 0.0 | 0.00 | 0.14 | 0.14 | 68 | 1009.4 |
| 20260508011821 | 49 | 117 | 0.0 | 0.0 | 0.00 | 0.14 | 0.14 | 67 | 1009.5 |
| 20260508011318 | 50 | 118 | 0.0 | 0.0 | 0.00 | 0.14 | 0.14 | 66 | 1009.6 |
| 20260508010815 | 50 | 116 | 0.0 | 0.0 | 0.00 | 0.14 | 0.14 | 64 | 1009.4 |
| 20260508010313 | 50 | 116 | 0.0 | 0.0 | 0.00 | 0.14 | 0.14 | 63 | 1009.6 |
| 20260508005809 | 51 | 116 | 0.0 | 0.0 | 0.00 | 0.14 | 0.14 | 61 | 1009.6 |
| 20260508005306 | 51 | 118 | 0.0 | 0.0 | 0.00 | 0.14 | 0.14 | 59 | 1009.3 |
| 20260508004802 | 52 | 116 | 0.0 | 0.0 | 0.00 | 0.14 | 0.14 | 59 | 1009.1 |
| 20260508004258 | 52 | 113 | 0.0 | 0.0 | 0.00 | 0.14 | 0.14 | 57 | 1009.1 |
| 20260508003755 | 53 | 116 | 0.0 | 0.0 | 0.00 | 0.14 | 0.14 | 54 | 1008.9 |
| 20260508003253 | 53 | 117 | 0.0 | 0.0 | 0.00 | 0.14 | 0.14 | 53 | 1008.9 |
| 20260508002749 | 54 | 111 | 0.0 | 0.0 | 0.00 | 0.14 | 0.14 | 51 | 1008.8 |
| 20260508002246 | 54 | 118 | 0.0 | 0.0 | 0.00 | 0.14 | 0.14 | 49 | 1008.9 |
| 20260508001742 | 55 | 116 | 0.0 | 0.0 | 0.00 | 0.14 | 0.14 | 47 | 1008.8 |
| 20260508001238 | 55 | 119 | 0.0 | 0.0 | 0.00 | 0.14 | 0.14 | 46 | 1008.8 |
| 20260508000734 | 56 | 113 | 0.0 | 0.0 | 0.00 | 0.14 | 0.14 | 45 | 1008.6 |
| 20260508000234 | 56 | 115 | 0.0 | 0.0 | 0.00 | 0.14 | 0.14 | 45 | 1008.5 |
| 20260507235728 | 57 | 119 | 0.0 | 0.0 | 0.00 | 0.14 | 0.14 | 43 | 1008.6 |
| 20260507235225 | 57 | 114 | 0.0 | 0.0 | 0.00 | 0.14 | 0.14 | 43 | 1008.8 |
| 20260507234722 | 57 | 123 | 0.0 | 1.0 | 0.00 | 0.14 | 0.14 | 42 | 1008.7 |
| 20260507234219 | 58 | 94 | 1.0 | 1.0 | 0.00 | 0.14 | 0.14 | 41 | 1008.6 |
| 20260507233715 | 58 | 71 | 1.0 | 1.0 | 0.00 | 0.14 | 0.14 | 41 | 1008.3 |
| 20260507233214 | 58 | 107 | 1.0 | 1.0 | 0.00 | 0.14 | 0.14 | 41 | 1008.7 |
| 20260507232710 | 59 | 114 | 1.0 | 1.0 | 0.00 | 0.14 | 0.14 | 40 | 1008.3 |
| 20260507232208 | 59 | 339 | 1.0 | 2.0 | 0.00 | 0.14 | 0.14 | 40 | 1008.3 |
| 20260507231704 | 59 | 54 | 0.0 | 1.0 | 0.00 | 0.14 | 0.14 | 39 | 1008.2 |
| 20260507231201 | 59 | 102 | 0.0 | 0.0 | 0.00 | 0.14 | 0.14 | 40 | 1008.2 |
| 20260507230658 | 59 | 348 | 2.0 | 3.0 | 0.00 | 0.14 | 0.14 | 39 | 1008.2 |
| 20260507230155 | 59 | 115 | 0.0 | 1.0 | 0.00 | 0.14 | 0.14 | 39 | 1008.4 |
| 20260507225654 | 59 | 100 | 0.0 | 0.0 | 0.00 | 0.14 | 0.14 | 39 | 1008.3 |
| 20260507225151 | 59 | 117 | 0.0 | 0.0 | 0.00 | 0.14 | 0.14 | 39 | 1008.2 |
| 20260507224647 | 59 | 108 | 0.0 | 1.0 | 0.00 | 0.14 | 0.14 | 39 | 1008.2 |
| 20260507224144 | 59 | 118 | 0.0 | 0.0 | 0.00 | 0.14 | 0.14 | 40 | 1008.2 |
| 20260507223640 | 59 | 37 | 2.0 | 3.0 | 0.00 | 0.14 | 0.14 | 39 | 1008.4 |
| 20260507223137 | 60 | 107 | 1.0 | 1.0 | 0.00 | 0.14 | 0.14 | 38 | 1008.1 |
| 20260507222634 | 60 | 100 | 0.0 | 1.0 | 0.00 | 0.14 | 0.14 | 36 | 1008.2 |
| 20260507222130 | 60 | 120 | 2.0 | 2.0 | 0.00 | 0.14 | 0.14 | 38 | 1008.2 |
| 20260507221626 | 60 | 86 | 3.0 | 3.0 | 0.00 | 0.14 | 0.14 | 37 | 1008.1 |
| 20260507221123 | 60 | 124 | 1.0 | 1.0 | 0.00 | 0.14 | 0.14 | 37 | 1008.3 |
| 20260507220620 | 60 | 87 | 1.0 | 1.0 | 0.00 | 0.14 | 0.14 | 39 | 1008.4 |
| 20260507220118 | 60 | 96 | 0.0 | 0.0 | 0.00 | 0.14 | 0.14 | 40 | 1008.1 |
| 20260507215614 | 61 | 110 | 0.0 | 0.0 | 0.00 | 0.14 | 0.14 | 41 | 1008.2 |
| 20260507215112 | 61 | 131 | 0.0 | 0.0 | 0.00 | 0.14 | 0.14 | 39 | 1008.0 |
| 20260507214609 | 60 | 106 | 0.0 | 0.0 | 0.00 | 0.14 | 0.14 | 40 | 1008.3 |
| 20260507214105 | 61 | 130 | 0.0 | 0.0 | 0.00 | 0.14 | 0.14 | 39 | 1008.1 |
| 20260507213601 | 62 | 21 | 2.0 | 2.0 | 0.00 | 0.14 | 0.14 | 37 | 1008.2 |
| 20260507213058 | 62 | 88 | 5.0 | 7.0 | 0.00 | 0.14 | 0.14 | 36 | 1008.1 |
| 20260507212554 | 62 | 64 | 1.0 | 2.0 | 0.00 | 0.14 | 0.14 | 37 | 1008.0 |
| 20260507212051 | 62 | 125 | 2.0 | 5.0 | 0.00 | 0.14 | 0.14 | 36 | 1007.9 |
| 20260507211548 | 62 | 126 | 0.0 | 0.0 | 0.00 | 0.14 | 0.14 | 38 | 1008.3 |
| 20260507211044 | 62 | 111 | 0.0 | 0.0 | 0.00 | 0.14 | 0.14 | 39 | 1008.0 |
| 20260507210541 | 62 | 90 | 1.0 | 1.0 | 0.00 | 0.14 | 0.14 | 38 | 1007.8 |
| 20260507210038 | 63 | 52 | 0.0 | 1.0 | 0.00 | 0.14 | 0.14 | 38 | 1007.9 |
| 20260507205535 | 62 | 51 | 2.0 | 2.0 | 0.00 | 0.14 | 0.14 | 39 | 1008.0 |
| 20260507205031 | 63 | 21 | 7.0 | 11.0 | 0.00 | 0.14 | 0.14 | 37 | 1007.8 |
| 20260507204527 | 63 | 85 | 2.0 | 3.0 | 0.00 | 0.14 | 0.14 | 37 | 1007.8 |
| 20260507204025 | 63 | 108 | 0.0 | 1.0 | 0.00 | 0.14 | 0.14 | 38 | 1008.1 |
| 20260507203523 | 63 | 132 | 1.0 | 1.0 | 0.00 | 0.14 | 0.14 | 37 | 1008.0 |
| 20260507203020 | 62 | 33 | 4.0 | 5.0 | 0.00 | 0.14 | 0.14 | 38 | 1007.9 |
| 20260507202515 | 62 | 27 | 1.0 | 2.0 | 0.00 | 0.14 | 0.14 | 37 | 1007.7 |
| 20260507202012 | 62 | 124 | 0.0 | 0.0 | 0.00 | 0.14 | 0.14 | 40 | 1007.7 |
| 20260507201508 | 62 | 206 | 3.0 | 5.0 | 0.00 | 0.14 | 0.14 | 38 | 1007.7 |
| 20260507201004 | 62 | 63 | 2.0 | 3.0 | 0.00 | 0.14 | 0.14 | 38 | 1007.8 |
| 20260507200459 | 62 | 12 | 1.0 | 3.0 | 0.00 | 0.14 | 0.14 | 39 | 1008.0 |
| 20260507195955 | 63 | 77 | 1.0 | 2.0 | 0.00 | 0.14 | 0.14 | 37 | 1008.0 |
| 20260507195453 | 63 | 108 | 3.0 | 6.0 | 0.00 | 0.14 | 0.14 | 37 | 1008.0 |
| 20260507194950 | 62 | 66 | 1.0 | 1.0 | 0.00 | 0.14 | 0.14 | 38 | 1008.1 |
| 20260507194447 | 62 | 66 | 0.0 | 1.0 | 0.00 | 0.14 | 0.14 | 39 | 1008.1 |
| 20260507193943 | 62 | 143 | 2.0 | 2.0 | 0.00 | 0.14 | 0.14 | 38 | 1008.2 |
| 20260507193440 | 61 | 119 | 0.0 | 0.0 | 0.00 | 0.14 | 0.14 | 37 | 1008.3 |
| 20260507192937 | 62 | 23 | 4.0 | 6.0 | 0.00 | 0.14 | 0.14 | 38 | 1008.1 |
| 20260507192433 | 63 | 84 | 1.0 | 2.0 | 0.00 | 0.14 | 0.14 | 37 | 1008.2 |
| 20260507191930 | 62 | 128 | 0.0 | 1.0 | 0.00 | 0.14 | 0.14 | 39 | 1008.3 |
| 20260507191426 | 63 | 68 | 2.0 | 3.0 | 0.00 | 0.14 | 0.14 | 38 | 1008.5 |
| 20260507190922 | 62 | 110 | 2.0 | 2.0 | 0.00 | 0.14 | 0.14 | 39 | 1008.4 |
| 20260507190420 | 62 | 156 | 1.0 | 2.0 | 0.00 | 0.14 | 0.14 | 38 | 1008.5 |
| 20260507185919 | 62 | 31 | 5.0 | 6.0 | 0.00 | 0.14 | 0.14 | 39 | 1008.6 |
| 20260507185416 | 62 | 42 | 1.0 | 1.0 | 0.00 | 0.14 | 0.14 | 38 | 1008.4 |
| 20260507184913 | 62 | 126 | 0.0 | 0.0 | 0.00 | 0.14 | 0.14 | 37 | 1008.5 |
| 20260507184411 | 62 | 110 | 0.0 | 0.0 | 0.00 | 0.14 | 0.14 | 38 | 1008.5 |
| 20260507183908 | 62 | 130 | 1.0 | 1.0 | 0.00 | 0.14 | 0.14 | 40 | 1008.9 |
| 20260507183405 | 62 | 69 | 1.0 | 1.0 | 0.00 | 0.14 | 0.14 | 40 | 1008.9 |
| 20260507182902 | 62 | 120 | 0.0 | 1.0 | 0.00 | 0.14 | 0.14 | 39 | 1008.8 |
| 20260507182357 | 62 | 127 | 0.0 | 0.0 | 0.00 | 0.14 | 0.14 | 39 | 1008.7 |
| 20260507181854 | 61 | 110 | 0.0 | 1.0 | 0.00 | 0.14 | 0.14 | 41 | 1008.9 |
| 20260507181350 | 62 | 131 | 1.0 | 1.0 | 0.00 | 0.14 | 0.14 | 40 | 1008.9 |
| 20260507180847 | 62 | 23 | 1.0 | 2.0 | 0.00 | 0.14 | 0.14 | 39 | 1009.1 |
| 20260507180344 | 62 | 199 | 2.0 | 2.0 | 0.00 | 0.14 | 0.14 | 40 | 1008.8 |
| 20260507175840 | 62 | 98 | 3.0 | 5.0 | 0.00 | 0.14 | 0.14 | 37 | 1009.2 |
| 20260507175337 | 61 | 119 | 0.0 | 1.0 | 0.00 | 0.14 | 0.14 | 38 | 1009.1 |
| 20260507174834 | 62 | 101 | 1.0 | 1.0 | 0.00 | 0.14 | 0.14 | 44 | 1009.3 |
| 20260507174332 | 61 | 106 | 0.0 | 0.0 | 0.00 | 0.14 | 0.14 | 42 | 1009.6 |
| 20260507173829 | 61 | 104 | 1.0 | 3.0 | 0.00 | 0.14 | 0.14 | 37 | 1009.6 |
| 20260507173326 | 60 | 76 | 1.0 | 1.0 | 0.00 | 0.14 | 0.14 | 39 | 1009.6 |
| 20260507172822 | 60 | 109 | 0.0 | 0.0 | 0.00 | 0.14 | 0.14 | 40 | 1009.6 |
| 20260507172319 | 60 | 227 | 3.0 | 5.0 | 0.00 | 0.14 | 0.14 | 42 | 1009.5 |